Miscellaneous Local Product
Issued by NWS Hastings, NE

Home | Current Version | Previous Version | Text Only | Print | Product List | Glossary Off
Versions: 1 2 3 4 5 6 7 8 9 10 11 12 13 14 15 16 17 18 19 20 21 22 23 24 25 26 27 28 29 30 31 32 33 34 35 36 37 38 39 40 41 42 43 44 45 46 47 48 49 50

000
AXUS43 KGID 262202
MISGRI

GID CWA HOURLY WEATHER ROUNDUP
NATIONAL WEATHER SERVICE HASTINGS NE
400 PM CST THU FEB 26 2015

NOTE: "FAIR" INDICATES FEW OR NO CLOUDS BELOW 12,000 FEET WITH NO
SIGNIFICANT WEATHER AND/OR OBSTRUCTIONS TO VISIBILITY.

...SOUTH CENTRAL NEBRASKA...

CITY           SKY/WX    TMP DP  RH WIND       PRES   REMARKS
GRAND ISLAND   SUNNY     16  -5  39 N12G24    30.46S WCI   3
HASTINGS       SUNNY     19  -8  30 N13       30.43S WCI   6
KEARNEY        SUNNY     18  -8  32 NE10      30.42F WCI   6
ORD            SUNNY     16  -7  35 N14G23    30.43F WCI   2
YORK           SUNNY     16  -2  45 N10       30.47S WCI   3
AURORA         MOSUNNY   17  -5  38 N15G21    30.46S WCI   2
LEXINGTON      SUNNY     20  -7  29 N10G21    30.40S WCI   9
HOLDREGE       SUNNY     20  -9  27 N15       30.40S WCI   6
HEBRON         SUNNY     18  -5  36 N13       30.47S WCI   5

...NEBRASKA PANHANDLE...

CITY           SKY/WX    TMP DP  RH WIND       PRES   REMARKS
CHADRON        PTSUNNY   13   1  59 N8        30.37S WCI   2
ALLIANCE       PTSUNNY   12   1  61 N14       30.29S WCI  -3
SCOTTSBLUFF    CLOUDY    17   2  51 E6        30.27F WCI   9
SIDNEY         CLOUDY    16   6  65 NE6       30.25R WCI   7

...WESTERN AND NORTH CENTRAL NEBRASKA...

CITY           SKY/WX    TMP DP  RH WIND       PRES   REMARKS
VALENTINE      MOSUNNY   13  -3  49 N9        30.43S WCI   1
AINSWORTH      MOSUNNY   11  -3  52 NW14      30.43R WCI  -5
ONEILL         CLOUDY    12   1  61 N14       30.47S WCI  -3
BROKEN BOW     SUNNY     18  -5  36 N17       30.39S WCI   3
IMPERIAL         N/A     22   0  38 N12       30.31S WCI  10
NORTH PLATTE   SUNNY     21  -5  31 N12G22    30.35F WCI   9
MCCOOK         SUNNY     25  -4  28 N8G20     30.36F WCI  16

...EASTERN NEBRASKA...

CITY           SKY/WX    TMP DP  RH WIND       PRES   REMARKS
NORFOLK        MIX PCPN  13   3  64 N17G26    30.47S WCI  -4
SO SIOUX CITY  CLOUDY    11   0  61 N17       30.52R WCI  -6
TEKAMAH        CLOUDY    13   2  61 N14       30.52S WCI  -2
COLUMBUS       PTSUNNY   12  -4  48 N14G21    30.50S WCI  -3
ALBION         MOSUNNY   13  -1  54 N15       30.46F WCI  -3
OMAHA EPPLEY   PTSUNNY   11   2  67 N15       30.53R WCI  -5
MILLARD        CLOUDY    11   0  59 NW14      30.52S WCI  -4
LINCOLN        PTSUNNY   13  -1  54 N16       30.52S WCI  -3
NEBRASKA CITY  CLOUDY    13  -2  51 N15       30.49S WCI  -3
BEATRICE       MOSUNNY   16   0  49 N16G23    30.49R WCI   1
FALLS CITY     SUNNY     16  -4  41 N13G24    30.49R WCI   2

...NORTHERN KANSAS...

CITY           SKY/WX    TMP DP  RH WIND       PRES   REMARKS
GOODLAND       CLOUDY    19   6  57 N6        30.29S WCI  11
HILL CITY      SUNNY     24  -6  26 NE15G22   30.40S WCI  11
NORTON         CLEAR     23 -11  21 N14       30.37  WCI  11
PHILLIPSBURG   SUNNY     25  -6  26 N9G17     30.42F WCI  15
HAYS           SUNNY     23  -6  28 NE17      30.40F WCI   9
RUSSELL        SUNNY     23  -6  28 N15G23    30.41S WCI  10
CONCORDIA      SUNNY     20  -3  36 N16G23    30.46S WCI   6
SALINA         SUNNY     23  -5  29 N21       30.46F WCI   8
TOPEKA         SUNNY     22   0  38 N14G21    30.47S WCI   9



USA.gov is the U.S. government's official web portal to all federal, state and local government web resources and services.